Location: Mahannah Oil Field
(37.4664°N, 96.6003°W)
Time: 04:19:22
(UTC+00:00)

deb Explorer IX - Pass Details

Date: 27 June 2021
Orbit: 544 x 1093 km, 38.8° (Epoch: 02 August)

Event Time Altitude Azimuth Distance (km) Brightness Sun altitude
Exits shadow 09:19:15 32° 215° (SW) 1,179 ? -17.3°
Maximum altitude 09:21:12 51° 158° (SSE) 835 ? -17.1°
Drops below altitude 10° 09:25:33 10° 82° (E) 1,954 ? -16.5°
Sets 09:27:46 0° 77° (ENE) 2,802 ? -16.2°
